Theta_e
288 290 290 290 290 290 289 290 286 288 288 292 294 293 296 295 297 298 298 300 300 301 301 302 303 304 305 307 309 309 309 310 310 311 311 311 312 312 313 316 319 325 329 333
287 290 291 287 289 290 290 290 290 290 289 295 295 296 296 297 297 298 300 301 302 303 304 304 305 306 306 306 307 308 308 309 311 311 311 311 310 311 312 315 318 322 327 331
283 287 286 281 286 288 289 290 289 284 289 293 293 295 295 297 298 298 300 301 302 302 303 304 304 305 304 306 308 306 307 308 309 310 309 309 310 310 311 314 317 320 326 329
282 282 275 285 292 292 289 290 291 293 293 294 295 296 297 298 297 298 300 301 302 303 303 303 304 305 306 306 306 306 307 307 308 308 308 309 309 309 311 313 314 318 324 327
280 276 283 287 291 291 289 288 294 291 293 294 296 297 295 300 301 300 300 302 302 304 304 305 305 305 306 306 306 306 306 307 307 307 307 307 307 308 310 311 314 317 323 326
280 278 274 283 295 298 296 285 295 295 294 295 293 287 290 296 299 299 301 302 302 304 305 305 305 306 305 305 304 304 306 306 307 307 306 306 307 308 310 311 313 317 321 327
282 280 282 291 294 296 284 283 295 295 294 293 290 293 296 298 298 300 302 302 302 303 303 304 305 305 304 304 304 305 305 305 305 305 305 306 308 309 309 311 315 317 320 322
284 281 279 295 292 285 289 290 293 292 293 293 294 295 296 297 297 299 299 300 302 301 302 305 307 304 302 301 303 303 304 303 303 304 305 307 307 308 310 312 313 316 320 318
285 284 291 293 291 293 292 290 292 292 294 293 293 295 296 296 296 298 298 298 299 298 299 301 301 301 299 300 302 302 301 301 302 304 305 306 306 307 307 310 313 317 318 316
285 285 288 291 293 293 294 293 294 293 294 296 294 293 293 293 293 293 293 293 294 295 294 294 297 298 299 300 302 302 300 301 303 304 304 305 306 307 307 310 315 317 316 315
285 288 289 290 291 293 293 294 294 296 296 294 292 291 292 291 291 290 291 292 293 292 292 293 295 296 298 298 300 300 300 301 302 303 303 303 305 306 310 317 317 317 315 315
282 288 286 287 291 293 292 293 295 293 291 292 293 291 292 290 290 290 290 290 291 291 292 292 294 295 296 298 299 299 299 300 301 302 303 305 306 307 302 299 303 302 302 310
289 292 291 291 293 294 295 294 293 291 292 291 292 292 291 289 289 290 290 290 290 290 291 292 293 294 296 298 299 298 298 300 301 302 303 305 306 306 308 306 297 300 301 299
294 294 291 293 293 295 295 292 293 292 291 291 290 291 289 288 288 287 287 288 289 290 291 292 294 295 298 300 300 300 301 299 302 303 305 305 306 309 314 312 309 308 297 303
295 296 294 295 295 293 293 292 290 288 288 289 289 287 287 286 286 286 288 290 291 292 294 295 296 297 300 302 302 303 304 303 304 304 307 308 311 314 314 313 309 301 300 298
294 294 294 293 293 291 291 289 287 287 287 287 286 286 286 287 287 289 291 292 291 291 293 294 295 297 299 299 299 302 306 301 301 307 309 310 313 313 312 307 304 303 301 295
292 291 292 291 289 290 289 288 288 287 286 285 285 286 286 288 289 290 290 292 292 293 293 293 294 295 297 299 300 302 306 307 298 306 313 314 314 312 308 306 304 303 299 298
295 293 291 290 290 289 288 289 287 286 285 285 286 287 288 288 288 288 289 291 292 291 293 293 293 295 298 304 310 310 309 311 311 313 313 312 310 308 306 306 305 300 298 295
293 290 290 290 290 290 289 288 287 286 285 285 287 287 288 288 288 289 290 290 290 288 290 292 293 296 299 303 302 311 312 311 312 312 311 302 307 307 307 306 302 299 298 298
292 292 291 291 291 290 289 291 290 287 288 289 289 287 287 287 288 289 290 289 290 290 291 293 294 296 296 302 299 310 311 311 311 310 309 308 306 305 303 298 300 299 300 302
292 291 290 290 290 290 291 291 290 288 289 289 287 286 286 286 288 289 288 287 289 290 291 292 293 293 296 298 305 307 309 310 310 310 309 306 304 303 302 301 300 301 301 301
292 291 290 290 290 290 291 290 289 289 288 288 288 287 286 286 287 288 290 287 289 288 291 291 291 289 294 295 305 305 305 305 306 307 306 305 303 302 301 301 302 302 302 301
291 291 291 291 290 290 291 289 288 289 288 287 286 286 286 286 286 286 286 290 290 288 291 290 288 289 290 301 302 302 302 302 302 303 303 303 302 302 302 302 302 302 302 302
291 291 291 291 290 289 288 289 288 289 289 289 288 287 286 286 287 289 291 289 288 289 290 288 288 289 292 297 298 299 300 301 301 302 302 296 303 303 302 302 302 303 303 302
291 290 289 289 288 287 287 288 288 287 288 288 289 290 290 290 288 288 290 290 288 289 290 288 288 289 293 295 296 295 297 297 298 301 301 302 302 302 302 302 303 303 303 302
289 288 288 288 287 288 288 288 286 287 287 286 288 289 290 291 290 290 290 289 290 288 289 290 289 290 291 291 293 294 295 295 296 297 300 301 301 302 302 302 302 302 302 302
288 288 288 287 287 288 288 287 287 287 287 287 287 289 289 290 289 289 288 289 289 289 289 289 289 288 289 290 291 292 294 295 292 295 296 298 299 299 299 300 300 301 301 299
Wind_Speed
4 4 5 8 11 12 15 17 11 33 21 27 12 10 11 7 6 8 8 5 3 4 6 6 6 6 6 6 6 5 7 7 10 8 6 7 9 10 10 11 11 12 13 14
9 15 15 22 18 16 19 22 20 26 34 13 5 0 3 6 7 6 4 4 4 5 6 7 7 8 7 7 8 6 8 10 11 7 6 8 10 11 10 11 12 13 14 14
10 2 4 13 15 20 14 15 14 17 19 3 3 5 5 7 7 8 9 8 7 7 8 7 7 7 7 11 10 8 10 11 10 8 8 9 11 12 12 11 12 13 14 13
7 3 10 6 2 3 8 7 5 2 2 3 4 6 8 8 8 10 9 8 8 9 11 9 7 9 11 11 12 11 13 11 8 8 9 10 11 12 13 11 12 12 13 14
4 5 8 9 2 3 4 5 4 3 4 5 7 8 7 9 6 7 9 11 15 14 15 14 13 12 13 15 13 13 12 8 8 9 11 12 12 13 12 12 11 12 13 15
3 3 5 5 4 2 4 4 6 5 8 7 6 10 10 6 12 17 16 12 14 16 15 14 13 12 13 14 12 12 8 8 9 11 13 14 13 13 13 13 13 10 13 15
8 7 7 1 9 7 5 3 7 4 5 6 8 11 17 16 18 19 17 20 20 19 17 16 14 11 13 12 12 11 11 12 13 13 14 14 13 11 13 13 12 12 14 8
6 8 8 9 8 4 8 3 7 5 5 11 15 18 18 17 19 17 21 21 19 19 18 16 16 12 14 15 14 14 13 13 14 14 11 10 11 12 13 12 12 12 8 6
3 3 7 9 14 9 4 8 5 5 10 11 16 18 17 18 19 18 18 19 18 18 19 11 10 12 18 18 17 14 13 14 14 13 11 11 11 14 11 11 11 11 7 6
5 5 9 10 9 6 5 4 6 8 11 12 16 18 19 20 20 19 18 20 20 20 22 23 19 17 18 17 15 14 14 15 13 12 11 11 9 10 12 10 11 9 8 8
11 15 14 8 5 3 4 5 8 11 11 12 15 17 17 19 21 20 19 18 16 18 18 20 18 18 17 17 15 15 15 15 14 10 10 12 11 11 10 12 10 11 11 10
12 15 9 11 5 5 6 7 10 10 12 13 14 17 18 18 17 18 19 19 17 19 19 19 18 18 18 16 15 15 14 12 11 9 9 9 9 10 12 8 16 12 9 12
18 15 7 9 6 4 7 11 10 9 13 16 16 15 18 19 16 22 19 19 18 19 19 18 18 18 18 15 14 15 15 14 9 9 9 9 9 9 9 3 2 15 14 12
10 6 6 3 6 9 8 7 10 14 15 14 15 16 16 16 18 17 17 17 18 18 19 18 19 19 16 14 15 15 15 18 9 8 9 8 9 9 8 6 5 5 7 11
4 3 7 9 8 6 5 9 12 13 14 14 14 14 14 16 17 18 17 16 16 17 17 16 16 17 13 12 11 13 10 9 9 9 8 9 8 9 6 5 6 6 6 10
8 7 8 10 8 8 8 9 11 13 13 14 14 15 15 15 16 17 16 15 14 14 16 15 15 15 13 12 13 10 10 13 9 8 8 9 9 6 6 6 7 7 7 10
9 9 11 10 9 8 9 9 10 11 13 13 15 15 15 16 16 15 16 16 15 14 14 14 16 16 14 13 13 9 7 6 10 8 9 8 7 8 8 8 8 8 8 11
5 6 5 5 7 9 10 9 10 11 12 14 14 14 15 14 14 16 16 16 14 15 12 14 15 17 14 11 8 5 6 6 5 6 6 7 7 8 8 8 9 10 8 8
3 4 5 5 5 7 9 10 10 11 12 12 14 15 14 13 13 15 15 14 14 16 19 19 25 18 12 11 8 2 4 4 4 5 6 8 7 7 8 8 9 9 11 12
4 3 4 5 5 5 9 9 10 9 11 12 13 12 13 14 15 15 15 14 11 11 17 17 17 14 13 11 9 1 3 5 6 7 7 8 8 8 7 8 9 10 11 11
6 5 5 5 6 7 6 7 9 11 11 11 11 12 12 12 12 13 13 13 18 19 18 20 15 12 9 8 5 5 3 4 6 7 8 8 10 9 9 9 10 10 10 9
5 5 6 5 5 7 6 6 6 9 9 10 11 11 12 13 14 14 11 12 13 19 13 12 13 17 11 11 9 8 7 7 7 7 7 7 7 8 8 9 10 10 10 10
6 5 6 6 5 6 6 6 7 8 9 10 10 12 10 7 7 9 12 17 13 15 12 13 20 22 16 12 10 10 10 10 9 8 7 8 8 7 7 9 9 10 11 11
5 6 5 5 5 7 8 7 7 8 8 8 9 10 10 10 9 10 10 14 21 17 14 17 19 21 18 13 12 12 10 10 9 8 7 8 9 7 8 9 9 9 10 12
5 4 5 6 6 4 5 7 7 9 10 9 11 10 11 7 6 9 10 12 18 16 14 21 23 21 14 13 13 12 11 11 10 9 9 8 8 7 7 8 9 10 10 11
5 4 4 5 3 3 3 4 5 6 7 7 8 8 9 9 10 11 11 14 14 16 13 13 14 13 13 14 13 13 13 12 11 11 9 9 9 9 9 8 8 9 10 11
4 5 5 5 5 4 3 4 6 8 8 8 7 8 9 10 11 12 14 12 12 12 12 13 13 15 14 13 13 13 12 11 14 10 10 10 9 9 9 9 9 9 10 11
Wind_Direction
266 291 274 244 240 232 232 248 229 270 259 274 283 266 267 259 293 286 297 298 318 291 285 285 284 284 280 268 273 253 249 252 256 254 256 268 282 285 285 280 279 272 266 253
270 273 269 258 245 240 240 246 249 255 273 281 308 41 274 291 299 304 302 336 315 289 285 278 264 259 258 253 250 245 247 253 255 247 256 268 277 277 279 275 276 273 262 250
264 256 294 276 218 219 228 238 232 243 264 77 317 315 280 283 274 275 273 279 290 285 275 270 271 270 271 278 278 260 259 264 250 246 254 263 271 279 274 273 273 269 258 252
264 140 255 259 186 188 209 232 212 196 12 319 262 272 286 267 252 277 280 285 292 289 291 271 273 274 275 270 269 263 265 249 234 248 253 260 269 273 274 268 267 266 258 245
231 213 303 294 190 165 167 254 182 105 324 305 309 313 257 259 259 262 276 283 285 277 274 273 276 271 269 272 269 267 256 236 240 241 262 270 262 264 267 268 266 265 258 250
165 246 240 238 66 186 95 253 140 343 309 298 332 298 293 294 298 295 283 273 276 276 271 272 268 261 259 265 262 249 258 249 255 264 263 265 257 257 265 265 268 267 263 247
240 245 272 80 61 355 227 233 248 237 271 268 270 271 294 300 294 290 289 295 292 286 278 274 270 254 252 251 256 268 270 261 260 258 257 254 250 253 263 265 263 268 258 203
215 216 227 67 343 260 233 294 262 287 291 290 287 292 294 295 290 289 287 285 285 283 278 272 260 240 251 263 272 265 262 258 259 261 251 248 241 256 259 257 264 261 221 157
249 263 211 252 247 261 272 257 270 279 292 288 292 294 300 300 298 294 296 295 292 290 287 285 278 273 278 276 275 270 262 261 257 254 251 242 242 253 262 252 249 245 197 165
325 273 270 279 273 262 192 230 262 271 280 292 294 296 294 300 300 296 291 290 291 288 283 282 278 272 268 270 266 262 262 262 257 252 242 239 240 252 253 246 247 200 180 184
263 288 290 277 262 261 275 289 270 290 292 292 295 290 292 296 299 297 293 289 284 280 278 278 278 275 273 273 272 264 258 259 257 248 233 246 242 246 244 247 231 194 182 175
258 267 261 276 276 286 288 286 311 302 298 290 286 293 297 297 296 294 291 291 286 282 280 280 279 276 273 265 258 256 253 252 246 237 237 235 238 255 239 253 240 222 184 172
260 275 252 271 279 278 311 314 301 289 294 302 302 302 301 297 296 297 294 291 287 286 284 281 277 273 270 267 259 250 247 249 241 230 235 233 235 241 251 236 258 182 170 152
297 290 282 277 313 314 294 305 310 311 310 304 302 300 296 295 298 295 290 290 289 285 280 276 274 269 269 260 254 247 243 240 235 227 229 226 230 231 233 206 168 148 46 166
304 328 287 287 288 298 321 326 317 315 313 306 306 300 299 300 300 297 295 293 293 289 289 289 284 281 282 273 265 260 242 230 218 218 227 225 228 232 185 174 138 129 109 67
327 307 295 290 311 336 324 320 314 315 314 310 309 308 306 302 299 302 305 307 306 306 303 303 295 293 295 283 268 258 252 218 210 213 213 222 229 177 155 144 138 136 127 124
313 328 325 331 335 329 330 322 314 309 308 308 309 310 312 307 307 312 316 314 310 305 306 300 305 303 293 280 263 248 233 207 208 221 232 196 173 162 152 151 145 135 136 146
301 327 334 317 321 327 323 321 312 311 311 308 309 312 314 318 317 315 316 318 317 323 321 321 309 310 299 283 274 198 192 207 191 192 162 147 149 140 145 145 135 131 131 140
309 325 325 318 312 310 317 316 314 309 311 313 318 322 318 317 322 322 326 334 338 337 334 329 327 327 323 317 323 277 169 157 150 149 135 125 120 126 136 138 134 131 135 149
271 279 291 294 297 294 308 317 316 325 327 327 324 329 334 334 333 332 335 339 342 329 325 328 334 331 322 324 330 306 147 142 137 132 131 119 118 124 127 112 130 135 145 147
311 298 297 293 301 304 294 311 332 338 331 331 333 335 330 326 337 336 342 349 341 339 335 340 343 337 326 325 1 24 64 109 121 133 132 123 125 128 123 132 134 137 138 133
341 325 319 311 305 307 322 332 339 334 336 339 344 347 346 344 342 345 352 355 337 340 342 350 349 345 349 12 23 30 44 64 72 86 99 106 114 120 125 126 132 132 130 126
3 359 1 356 338 323 333 357 341 348 343 338 345 351 351 332 324 349 348 344 348 344 360 359 354 2 360 26 23 31 43 52 60 71 82 100 103 108 120 120 116 121 125 128
7 13 11 7 15 18 13 346 354 353 346 349 356 351 347 349 354 360 348 347 357 358 9 4 7 9 22 25 23 33 37 42 48 55 74 95 98 100 104 113 117 121 121 120
17 5 356 6 10 7 9 351 354 358 357 2 4 358 356 2 5 339 357 358 3 8 10 9 11 14 21 22 25 26 31 39 34 47 46 66 84 91 99 108 112 117 114 115
33 16 3 7 2 16 26 0 11 3 3 8 6 359 1 8 7 7 6 7 11 9 13 11 13 14 18 21 22 25 32 30 35 32 43 52 67 75 83 90 97 101 105 107
46 33 26 17 18 23 28 18 22 18 14 11 9 4 12 14 14 14 12 12 14 14 15 13 14 16 15 18 21 24 26 35 39 40 40 50 54 68 73 75 77 87 95 102